TimePHT,TemperatureF,Dew PointF,Humidity,Sea Level PressureIn,VisibilityMPH,Wind Direction,Wind SpeedMPH,Gust SpeedMPH,PrecipitationIn,Events,Conditions,WindDirDegrees,DateUTC
12:00 AM,78.8,69.8,74,29.89,6.2,Variable,3.5,-,N/A,,Partly Cloudy,0,2012-11-10 16:00:00
1:00 AM,78.8,71.6,78,29.89,6.2,Calm,Calm,-,N/A,,Partly Cloudy,0,2012-11-10 17:00:00
2:00 AM,,78,,,11,ENE,4.5,,,,,60,2012-11-10 18:00:00
2:00 AM,77.0,71.6,83,29.89,6.2,ENE,4.6,-,N/A,,Partly Cloudy,60,2012-11-10 18:00:00
3:00 AM,75.2,69.8,83,29.86,6.2,East,5.8,-,N/A,,Partly Cloudy,80,2012-11-10 19:00:00
4:00 AM,75.2,69.8,83,29.86,6.2,ENE,6.9,-,N/A,,Partly Cloudy,60,2012-11-10 20:00:00
5:00 AM,-9999,-9999,,29.88,11,NE,4.5,,,,Haze,40,2012-11-10 21:00:00
5:00 AM,77.0,71.6,83,29.86,6.2,NE,4.6,-,N/A,,Partly Cloudy,40,2012-11-10 21:00:00
6:00 AM,75.2,71.6,89,29.86,6.2,ENE,6.9,-,N/A,,Partly Cloudy,60,2012-11-10 22:00:00
7:00 AM,77.0,71.6,83,29.89,6.2,NE,6.9,-,N/A,,Partly Cloudy,40,2012-11-10 23:00:00
8:00 AM,80,71,68,29.91,12,NNE,4.5,,,,Haze,30,2012-11-11 00:00:00
8:00 AM,80.6,71.6,74,29.89,6.2,NNE,4.6,-,N/A,,Partly Cloudy,30,2012-11-11 00:00:00
9:00 AM,84.2,71.6,66,29.89,6.2,Variable,2.3,-,N/A,,Partly Cloudy,0,2012-11-11 01:00:00
10:00 AM,87.8,71.6,58,29.89,6.2,ENE,12.7,-,N/A,,Partly Cloudy,70,2012-11-11 02:00:00
11:00 AM,89,72,49,29.89,12,ENE,13.4,,,,Haze,70,2012-11-11 03:00:00
11:00 AM,89.6,71.6,55,29.89,6.2,ENE,13.8,-,N/A,,Partly Cloudy,70,2012-11-11 03:00:00
12:00 PM,89.6,69.8,52,29.86,6.2,ENE,15.0,-,N/A,,Scattered Clouds,70,2012-11-11 04:00:00
1:00 PM,87.8,68.0,52,29.83,6.2,ENE,13.8,-,N/A,,Scattered Clouds,60,2012-11-11 05:00:00
2:00 PM,91.4,71.6,52,29.80,6.2,ENE,13.8,-,N/A,,Mostly Cloudy,70,2012-11-11 06:00:00
3:00 PM,71.6,69.8,94,29.80,6.2,ENE,12.7,-,N/A,,Mostly Cloudy,60,2012-11-11 07:00:00
4:00 PM,87.8,69.8,55,29.80,6.2,NE,4.6,-,N/A,,Mostly Cloudy,50,2012-11-11 08:00:00
5:00 PM,87,72,52,29.83,12,ENE,8.9,,,,Haze,60,2012-11-11 09:00:00
5:00 PM,86.0,71.6,62,29.83,6.2,ENE,9.2,-,N/A,,Mostly Cloudy,60,2012-11-11 09:00:00
6:00 PM,82.4,71.6,70,29.83,6.2,East,4.6,-,N/A,,Mostly Cloudy,80,2012-11-11 10:00:00
7:00 PM,80.6,71.6,74,29.86,6.2,East,5.8,-,N/A,,Mostly Cloudy,80,2012-11-11 11:00:00
8:00 PM,81,72,68,29.89,11,ENE,4.5,,,,Haze,60,2012-11-11 12:00:00
8:00 PM,80.6,71.6,74,29.89,6.2,ENE,4.6,-,N/A,,Partly Cloudy,60,2012-11-11 12:00:00
9:00 PM,80.6,71.6,74,29.89,6.2,ENE,5.8,-,N/A,,Partly Cloudy,60,2012-11-11 13:00:00
10:00 PM,82.4,71.6,70,29.89,6.2,NNE,5.8,-,N/A,,Partly Cloudy,30,2012-11-11 14:00:00
11:00 PM,82,70,60,29.89,11,NE,6.7,,,,Haze,50,2012-11-11 15:00:00
11:00 PM,82.4,69.8,66,29.89,6.2,NE,8.1,-,N/A,,Partly Cloudy,50,2012-11-11 15:00:00